TONGUE Weather Reports


time (UTC)temp
C
wind
direction
speed
KPH
gust
KPH
rain 1hr
cm
rain 24hr
cm
rain mn
cm
humidity
%
barometer
mb
20260507090005 10 229 0.0 4.8 0.00 0.00 0.00 81
20260507085003 10 249 0.0 8.0 0.00 0.00 0.00 74
20260507084002 10 193 0.0 8.0 0.00 0.00 0.00 78
20260507083002 10 246 0.0 6.4 0.00 0.00 0.00 77
20260507082002 11 261 1.6 6.4 0.00 0.00 0.00 73
20260507080004 11 244 0.0 6.4 0.00 0.00 0.00 77
20260507075003 10 203 0.0 3.2 0.00 0.00 0.00 87
20260507074003 10 238 0.0 4.8 0.00 0.00 0.00 79
20260507073002 11 204 1.6 6.4 0.00 0.00 0.00 78
20260507072003 11 273 1.6 12.9 0.00 0.00 0.00 78
20260507071003 10 250 0.0 3.2 0.00 0.00 0.00 78
20260507070007 11 252 0.0 9.7 0.00 0.00 0.00 77
20260507065003 11 219 1.6 11.3 0.00 0.00 0.00 75
20260507064003 11 265 6.4 12.9 0.00 0.00 0.00 78
20260507063003 11 224 1.6 6.4 0.00 0.00 0.00 85
20260507062003 11 267 1.6 6.4 0.00 0.00 0.00 84
20260507061003 11 281 0.0 9.7 0.00 0.00 0.00 87
20260507060003 11 254 1.6 8.0 0.00 0.00 0.00 86
20260507055003 11 245 3.2 4.8 0.00 0.00 0.00 87
20260507054003 11 124 0.0 3.2 0.00 0.00 0.00 87
20260507053004 11 275 0.0 6.4 0.00 0.00 0.00 87
20260507052003 11 274 0.0 4.8 0.00 0.00 0.00 86
20260507051003 11 258 1.6 4.8 0.00 0.00 0.00 83
20260507050003 11 290 1.6 4.8 0.00 0.00 0.00 80
20260507045002 11 249 0.0 9.7 0.00 0.00 0.00 92
20260507044003 11 268 1.6 8.0 0.00 0.00 0.00 86
20260507043003 11 209 235.0 6.4 0.00 0.00 0.00 92
20260507042003 11 123 0.0 3.2 0.00 0.00 0.00 95
20260507041003 11 182 0.0 1.6 0.00 0.00 0.00 97
20260507040003 11 180 0.0 3.2 0.00 0.00 0.00 96
20260507035003 11 251 1.6 4.8 0.00 0.00 0.00 95
20260507034003 11 238 1.6 6.4 0.00 0.00 0.00 96
20260507033003 11 153 0.0 6.4 0.00 0.00 0.00 95
20260507032003 12 200 0.0 4.8 0.00 0.00 0.00 95
20260507031003 12 163 0.0 3.2 0.00 0.00 0.00 96
20260507030004 11 266 0.0 3.2 0.00 0.00 0.00 96
20260507025002 11 240 0.0 8.0 0.00 0.00 0.00 95
20260507024003 11 246 0.0 6.4 0.00 0.00 0.00 95
20260507023003 11 240 0.0 6.4 0.00 0.00 0.00 95
20260507022003 12 288 3.2 6.4 0.00 0.00 0.00 94
20260507021004 12 273 3.2 9.7 0.00 0.00 0.00 94
20260507020002 12 277 1.6 9.7 0.00 0.00 0.00 93
20260507015002 12 230 0.0 9.7 0.00 0.00 0.00 94
20260507014003 12 241 1.6 9.7 0.00 0.00 0.00 93
20260507013003 12 220 3.2 9.7 0.00 0.00 0.00 93
20260507012004 12 235 0.0 8.0 0.00 0.00 0.00 91
20260507011003 12 290 4.8 11.3 0.00 0.00 0.00 91
20260507010004 12 265 0.0 9.7 0.00 0.00 0.00 91
20260507005002 12 253 1.6 9.7 0.00 0.00 0.00 91
20260507004003 12 251 1.6 8.0 0.00 0.00 0.00 90
20260507003003 12 278 3.2 12.9 0.00 0.00 0.00 90
20260507002003 12 292 1.6 12.9 0.00 0.00 0.00 91
20260507001003 12 295 4.8 12.9 0.00 0.00 0.00 92
20260507000004 12 278 3.2 14.5 0.00 0.00 0.00 92
20260506235002 12 295 3.2 11.3 0.00 0.00 0.00 91
20260506234002 12 233 1.6 12.9 0.00 0.00 0.00 94
20260506233003 12 288 1.6 14.5 0.00 0.00 0.00 93
20260506232003 12 295 9.7 19.3 0.00 0.00 0.00 95
20260506231003 12 256 4.8 12.9 0.00 0.00 0.00 93
20260506230003 12 258 3.2 16.1 0.00 0.00 0.00 93
20260506225003 12 260 4.8 14.5 0.00 0.00 0.00 95
20260506224003 13 274 4.8 12.9 0.00 0.00 0.00 93
20260506223003 12 284 6.4 12.9 0.00 0.00 0.00 94
20260506222003 12 303 6.4 17.7 0.00 0.00 0.00 92
20260506221003 12 200 0.0 12.9 0.00 0.00 0.00 89
20260506220004 12 283 3.2 16.1 0.00 0.00 0.00 88
20260506215003 12 256 3.2 16.1 0.00 0.00 0.00 86
20260506214002 12 265 4.8 14.5 0.00 0.00 0.00 86
20260506213003 12 238 0.0 12.9 0.00 0.00 0.00 92
20260506212003 12 214 1.6 6.4 0.00 0.00 0.00 90
20260506211003 12 226 0.0 9.7 0.00 0.00 0.00 89
20260506210004 12 203 3.2 11.3 0.00 0.00 0.00 88
20260506205003 13 235 0.0 4.8 0.00 0.00 0.00 88
20260506204004 12 281 1.6 8.0 0.00 0.00 0.00 90
20260506203002 12 290 4.8 11.3 0.00 0.00 0.00 94
20260506202003 12 305 8.0 14.5 0.00 0.00 0.00 95
20260506201003 12 278 1.6 12.9 0.00 0.00 0.00 93
20260506200004 13 172 1.6 4.8 0.00 0.00 0.00 91
20260506195003 12 157 0.0 6.4 0.00 0.00 0.00 96
20260506194003 12 271 0.0 8.0 0.00 0.00 0.00 96
20260506193002 12 272 1.6 9.7 0.00 0.00 0.00 94
20260506192002 12 267 3.2 9.7 0.00 0.00 0.00 93
20260506191003 12 294 3.2 16.1 0.00 0.00 0.00 91
20260506190004 12 306 4.8 14.5 0.00 0.00 0.00 91
20260506185003 12 293 1.6 4.8 0.00 0.00 0.00 89
20260506184003 12 208 0.0 4.8 0.00 0.00 0.00 90
20260506183004 12 134 0.0 4.8 0.00 0.00 0.00 90
20260506182002 12 275 0.0 8.0 0.00 0.00 0.00 90
20260506181002 12 275 3.2 8.0 0.00 0.00 0.00 89
20260506180004 12 158 0.0 8.0 0.00 0.00 0.00 87
20260506175003 12 192 0.0 6.4 0.00 0.00 0.00 87
20260506174003 12 256 1.6 6.4 0.00 0.00 0.00 85
20260506173003 12 302 0.0 3.2 0.00 0.00 0.00 84
20260506172003 12 294 3.2 9.7 0.00 0.00 0.00 84
20260506171002 12 114 3.2 9.7 0.00 0.00 0.00 84
20260506170003 12 191 0.0 1.6 0.00 0.00 0.00 84
20260506165003 12 266 0.0 4.8 0.00 0.00 0.00 85
20260506164003 12 225 3.2 8.0 0.00 0.00 0.00 86
20260506163003 12 222 1.6 6.4 0.00 0.00 0.00 86
20260506162003 12 185 1.6 4.8 0.00 0.00 0.00 87
20260506161002 12 253 0.0 3.2 0.00 0.00 0.00 85
20260506160003 12 104 0.0 1.6 0.00 0.00 0.00 86
20260506155003 12 195 0.0 3.2 0.00 0.00 0.00 84
20260506154003 12 154 0.0 3.2 0.00 0.00 0.00 89
20260506153003 12 124 0.0 1.6 0.00 0.00 0.00 91
20260506152003 12 268 0.0 4.8 0.00 0.00 0.00 90
20260506151003 12 82 0.0 4.8 0.00 0.00 0.00 91
20260506150003 12 275 0.0 0.0 0.00 0.00 0.00 92
20260506145002 12 177 0.0 0.0 0.00 0.00 0.00 94
20260506144003 12 146 235.0 0.0 0.00 0.00 0.00 95
20260506143003 11 125 0.0 3.2 0.00 0.00 0.00 94
20260506142003 12 284 1.6 6.4 0.00 0.00 0.00 96
20260506141003 11 116 0.0 0.0 0.00 0.00 0.00 99
20260506140003 11 108 0.0 0.0 0.00 0.00 0.00 98
20260506135003 11 108 0.0 3.2 0.00 0.00 0.00 94
20260506134003 11 116 0.0 0.0 0.00 0.00 0.00 94
20260506133003 11 239 0.0 0.0 0.00 0.00 0.00 96
20260506132003 11 228 0.0 3.2 0.00 0.00 0.00 97
20260506131003 11 146 0.0 0.0 0.00 0.00 0.00 97
20260506130003 11 176 0.0 0.0 0.00 0.00 0.00 96
20260506125007 11 193 0.0 0.0 0.00 0.00 0.00 97
20260506124003 11 180 0.0 0.0 0.00 0.00 0.00 98
20260506123003 11 185 0.0 3.2 0.00 0.00 0.00 95
20260506122003 11 147 0.0 3.2 0.00 0.00 0.00 98
20260506121003 11 170 0.0 1.6 0.00 0.00 0.00 97
20260506120004 11 179 0.0 1.6 0.00 0.00 0.00 98
20260506115003 11 156 0.0 0.0 0.00 0.00 0.00 98
20260506114003 11 222 0.0 1.6 0.00 0.00 0.00 98
20260506113019 11 175 0.0 3.2 0.00 0.00 0.00 99
20260506112002 11 218 3.2 4.8 0.00 0.00 0.00 99
20260506111002 11 168 0.0 0.0 0.00 0.00 0.00 99
20260506110003 11 155 0.0 1.6 0.00 0.00 0.00 97
20260506105003 11 163 0.0 0.0 0.00 0.00 0.00 96
20260506104003 11 227 0.0 0.0 0.00 0.00 0.00 95
20260506103004 11 139 0.0 1.6 0.00 0.00 0.00 94
20260506102002 11 163 0.0 1.6 0.00 0.00 0.00 94
20260506101002 11 193 0.0 4.8 0.00 0.00 0.00 93
20260506100009 11 183 0.0 3.2 0.00 0.00 0.00 93
20260506095003 11 218 0.0 1.6 0.00 0.00 0.00 98
20260506094003 11 183 235.0 235.0 0.00 0.00 0.00 100
20260506093004 12 206 0.0 0.0 0.00 0.00 0.00 97
20260506092002 11 138 0.0 0.0 0.00 0.00 0.00 97
20260506091002 11 232 0.0 0.0 0.00 0.00 0.00 99